EW6167 Weather Reports


time (UTC)temp
C
wind
direction
speed
KPH
gust
KPH
rain 1hr
cm
rain 24hr
cm
rain mn
cm
humidity
%
barometer
mb
20260504192010 12 313 14.5 0.0 0.00 0.00 0.00 41 1007.1
20260504191528 12 9 12.9 0.0 0.00 0.00 0.00 43 1007.2
20260504191044 12 5 11.3 0.0 0.00 0.00 0.00 44 1007.3
20260504190559 11 17 12.9 0.0 0.00 0.00 0.00 45 1007.3
20260504190009 11 337 16.1 0.0 0.00 0.00 0.00 43 1007.4
20260504185526 11 321 17.7 0.0 0.00 0.00 0.00 44 1007.6
20260504185047 11 337 14.5 0.0 0.00 0.00 0.00 44 1007.6
20260504184602 11 15 14.5 0.0 0.00 0.00 0.00 46 1007.6
20260504184014 11 360 14.5 0.0 0.00 0.00 0.00 46 1007.7
20260504183528 11 355 16.1 0.0 0.00 0.00 0.00 46 1007.7
20260504183050 11 360 16.1 0.0 0.00 0.00 0.00 47 1007.8
20260504182604 11 327 16.1 0.0 0.00 0.00 0.00 47 1007.8
20260504182012 10 334 16.1 0.0 0.00 0.00 0.00 49 1007.9
20260504181529 10 355 16.1 0.0 0.00 0.00 0.00 47 1007.9
20260504181049 10 341 17.7 0.0 0.00 0.00 0.00 47 1008.0
20260504180607 10 310 17.7 0.0 0.00 0.00 0.00 49 1008.0
20260504180019 10 313 16.1 0.0 0.00 0.00 0.00 49 1008.1
20260504175534 10 301 16.1 0.0 0.00 0.00 0.00 49 1008.2
20260504175051 10 331 14.5 0.0 0.00 0.00 0.00 50 1008.2
20260504174509 10 355 14.5 0.0 0.00 0.00 0.00 48 1008.5
20260504174018 10 21 14.5 0.0 0.00 0.00 0.00 48 1008.5
20260504173534 10 340 12.9 0.0 0.00 0.00 0.00 50 1008.3
20260504173051 9 338 12.9 0.0 0.00 0.00 0.00 50 1008.4
20260504172603 9 321 14.5 0.0 0.00 0.00 0.00 49 1008.4
20260504172014 9 311 16.1 0.0 0.00 0.00 0.00 51 1008.4
20260504171541 9 329 16.1 0.0 0.00 0.00 0.00 50 1008.5
20260504171042 9 322 17.7 0.0 0.00 0.00 0.00 51 1008.6
20260504170558 8 321 19.3 0.0 0.00 0.00 0.00 51 1008.5
20260504151052 7 344 16.1 0.0 0.00 0.00 0.00 55 1008.9
20260504150502 7 333 17.7 0.0 0.00 0.00 0.00 54 1008.9
20260504141026 6 327 27.4 0.0 0.00 0.00 0.00 57 1009.1
20260504140544 6 316 25.7 0.0 0.00 0.00 0.00 57 1009.0
20260504130542 5 336 12.9 0.0 0.00 0.00 0.00 62 1008.5
20260504120105 2 96 4.8 0.0 0.00 0.00 0.00 74 1007.7
20260504110520 2 179 8.0 0.0 0.00 0.00 0.00 78 1006.3
20260504100523 1 182 8.0 0.0 0.00 0.00 0.00 79 1006.3
20260504081552 2 182 8.0 0.0 0.00 0.00 0.00 76 1006.5
20260504081003 2 192 6.4 0.0 0.00 0.00 0.00 76 1006.6
20260504080521 2 188 6.4 0.0 0.00 0.00 0.00 76 1006.5
20260504050508 6 181 8.0 0.0 0.00 0.00 0.00 63 1006.0
20260504050021 6 197 8.0 0.0 0.00 0.00 0.00 63 1006.0
20260504045541 5 141 8.0 0.0 0.00 0.00 0.00 65 1006.0
20260504045059 6 215 9.7 0.0 0.00 0.00 0.00 65 1005.9
20260504044518 6 219 9.7 0.0 0.00 0.00 0.00 66 1005.9
20260504044025 5 228 9.7 0.0 0.00 0.00 0.00 67 1006.0
20260504043544 5 199 9.7 0.0 0.00 0.00 0.00 68 1005.7
20260504043106 5 194 9.7 0.0 0.00 0.00 0.00 69 1005.6
20260504042521 5 189 8.0 0.0 0.00 0.00 0.00 69 1005.6
20260504042039 5 186 8.0 0.0 0.00 0.00 0.00 70 1005.7
20260504041556 5 190 8.0 0.0 0.00 0.00 0.00 71 1005.7
20260504041011 5 190 8.0 0.0 0.00 0.00 0.00 69 1005.7
20260504040532 5 176 8.0 0.0 0.00 0.00 0.00 66 1005.6
20260504040045 6 176 8.0 0.0 0.00 0.00 0.00 62 1005.6
20260504035602 7 162 8.0 0.0 0.00 0.00 0.00 60 1005.6
20260504035007 6 162 6.4 0.0 0.00 0.00 0.00 61 1005.6
20260504034524 6 162 8.0 0.0 0.00 0.00 0.00 62 1005.5
20260504034038 7 162 8.0 0.0 0.00 0.00 0.00 61 1005.5
20260504033553 7 162 9.7 0.0 0.00 0.00 0.00 59 1005.4
20260504033013 7 162 8.0 0.0 0.00 0.00 0.00 59 1005.3
20260504032526 7 161 8.0 0.0 0.00 0.00 0.00 58 1005.2
20260504032044 8 180 6.4 0.0 0.00 0.00 0.00 57 1005.3
20260504031558 9 180 8.0 0.0 0.00 0.00 0.00 54 1005.2
20260504031004 10 180 6.4 0.0 0.00 0.00 0.00 50 1005.2
20260504030521 12 187 4.8 0.0 0.00 0.00 0.00 45 1005.1
20260504030040 12 190 3.2 0.0 0.00 0.00 0.00 40 1005.1
20260504025559 13 13 3.2 0.0 0.00 0.00 0.00 40 1005.0
20260504025008 13 13 1.6 0.0 0.00 0.00 0.00 38 1005.0
20260504024523 14 13 0.0 0.0 0.00 0.00 0.00 38 1004.9
20260504024042 14 13 0.0 0.0 0.00 0.00 0.00 36 1004.9
20260504023555 15 13 1.6 0.0 0.00 0.00 0.00 36 1004.9
20260504023009 15 13 3.2 0.0 0.00 0.00 0.00 34 1004.9
20260504022525 15 13 3.2 0.0 0.00 0.00 0.00 34 1004.9
20260504022044 15 13 3.2 0.0 0.00 0.00 0.00 35 1004.7
20260504021600 16 13 3.2 0.0 0.00 0.00 0.00 34 1004.7
20260504021015 16 13 4.8 0.0 0.00 0.00 0.00 34 1004.6
20260504020536 16 13 6.4 0.0 0.00 0.00 0.00 33 1004.6
20260504020050 16 13 6.4 0.0 0.00 0.00 0.00 32 1004.6
20260504015506 17 13 6.4 0.0 0.00 0.00 0.00 29 1004.6
20260504015026 17 13 6.4 0.0 0.00 0.00 0.00 28 1004.7
20260504014546 17 13 6.4 0.0 0.00 0.00 0.00 28 1004.7
20260504014104 17 13 6.4 0.0 0.00 0.00 0.00 27 1004.7
20260504013519 18 15 6.4 0.0 0.00 0.00 0.00 26 1004.8
20260504013047 17 12 6.4 0.0 0.00 0.00 0.00 24 1004.9
20260504012554 17 24 4.8 0.0 0.00 0.00 0.00 27 1004.8
20260504012006 17 5 4.8 0.0 0.00 0.00 0.00 27 1005.0
20260504011526 17 5 6.4 0.0 0.00 0.00 0.00 26 1004.9
20260504011040 17 355 6.4 0.0 0.00 0.00 0.00 29 1005.0
20260504010503 16 355 8.0 0.0 0.00 0.00 0.00 31 1005.0
20260504010018 16 355 9.7 0.0 0.00 0.00 0.00 28 1005.1
20260504005535 17 355 11.3 0.0 0.00 0.00 0.00 26 1005.1
20260504005050 17 355 12.9 0.0 0.00 0.00 0.00 25 1005.1
20260504004502 18 350 16.1 0.0 0.00 0.00 0.00 25 1005.2
20260504004015 18 346 14.5 0.0 0.00 0.00 0.00 23 1005.2
20260504003534 18 331 12.9 0.0 0.00 0.00 0.00 25 1005.2
20260504003056 18 350 11.3 0.0 0.00 0.00 0.00 26 1005.3
20260504002512 17 16 9.7 0.0 0.00 0.00 0.00 24 1005.4
20260504002026 17 21 11.3 0.0 0.00 0.00 0.00 25 1005.5
20260504001548 17 342 12.9 0.0 0.00 0.00 0.00 25 1005.5
20260504001001 18 9 14.5 0.0 0.00 0.00 0.00 24 1005.5
20260504000516 18 344 14.5 0.0 0.00 0.00 0.00 22 1005.5
20260504000032 18 344 14.5 0.0 0.00 0.00 0.00 24 1005.5
20260503235544 18 355 11.3 0.0 0.00 0.00 0.00 23 1005.7
20260503235105 18 9 12.9 0.0 0.00 0.00 0.00 22 1005.7
20260503234516 18 329 14.5 0.0 0.00 0.00 0.00 23 1005.7
20260503234032 18 324 12.9 0.0 0.00 0.00 0.00 23 1005.7
20260503233548 18 320 11.3 0.0 0.00 0.00 0.00 23 1005.8
20260503233002 18 345 11.3 0.0 0.00 0.00 0.00 23 1005.7
20260503232520 18 321 14.5 0.0 0.00 0.00 0.00 23 1005.8
20260503232037 18 318 14.5 0.0 0.00 0.00 0.00 24 1005.9
20260503231552 18 303 14.5 0.0 0.00 0.00 0.00 24 1006.0
20260503231003 18 310 14.5 0.0 0.00 0.00 0.00 24 1006.0
20260503230524 18 323 14.5 0.0 0.00 0.00 0.00 25 1006.0
20260503230040 18 329 16.1 0.0 0.00 0.00 0.00 25 1006.1
20260503225554 18 337 16.1 0.0 0.00 0.00 0.00 24 1006.1
20260503225014 18 325 14.5 0.0 0.00 0.00 0.00 24 1006.1
20260503224533 18 316 14.5 0.0 0.00 0.00 0.00 24 1006.1
20260503224047 18 319 16.1 0.0 0.00 0.00 0.00 23 1006.2
20260503223609 18 337 16.1 0.0 0.00 0.00 0.00 24 1006.3
20260503223015 18 24 12.9 0.0 0.00 0.00 0.00 23 1006.3
20260503222530 18 5 12.9 0.0 0.00 0.00 0.00 24 1006.5
20260503222044 18 339 11.3 0.0 0.00 0.00 0.00 23 1006.5
20260503221603 18 344 16.1 0.0 0.00 0.00 0.00 24 1006.6
20260503221011 19 355 16.1 0.0 0.00 0.00 0.00 23 1006.8
20260503220527 18 9 14.5 0.0 0.00 0.00 0.00 26 1006.8
20260503220044 18 306 14.5 0.0 0.00 0.00 0.00 24 1006.9
20260503215559 18 286 14.5 0.0 0.00 0.00 0.00 25 1006.9
20260503215013 17 338 11.3 0.0 0.00 0.00 0.00 26 1006.9
20260503214530 17 19 11.3 0.0 0.00 0.00 0.00 26 1007.0
20260503214049 17 9 12.9 0.0 0.00 0.00 0.00 25 1007.1
20260503213506 18 331 9.7 0.0 0.00 0.00 0.00 24 1007.1
20260503213020 18 340 8.0 0.0 0.00 0.00 0.00 24 1007.3
20260503212536 18 326 11.3 0.0 0.00 0.00 0.00 24 1007.5
20260503212052 18 333 11.3 0.0 0.00 0.00 0.00 25 1007.5
20260503211506 18 340 9.7 0.0 0.00 0.00 0.00 27 1007.5
20260503211023 17 48 8.0 0.0 0.00 0.00 0.00 24 1007.3
20260503210541 17 44 9.7 0.0 0.00 0.00 0.00 25 1007.5
20260503210058 17 337 11.3 0.0 0.00 0.00 0.00 27 1007.4
20260503205513 17 355 11.3 0.0 0.00 0.00 0.00 26 1007.5
20260503205027 17 355 9.7 0.0 0.00 0.00 0.00 26 1007.7
20260503204545 17 344 8.0 0.0 0.00 0.00 0.00 26 1007.6
20260503204059 17 355 6.4 0.0 0.00 0.00 0.00 25 1007.7
20260503203509 17 47 4.8 0.0 0.00 0.00 0.00 27 1007.9
20260503203025 17 30 9.7 0.0 0.00 0.00 0.00 25 1008.0
20260503202542 17 33 11.3 0.0 0.00 0.00 0.00 26 1008.1
20260503202101 17 27 12.9 0.0 0.00 0.00 0.00 26 1008.2
20260503201514 17 350 9.7 0.0 0.00 0.00 0.00 25 1008.2
20260503201028 17 26 8.0 0.0 0.00 0.00 0.00 26 1008.2
20260503200544 18 355 4.8 0.0 0.00 0.00 0.00 27 1008.2
20260503200104 17 303 8.0 0.0 0.00 0.00 0.00 26 1008.2
20260503195510 17 342 12.9 0.0 0.00 0.00 0.00 26 1008.3
20260503195031 17 312 12.9 0.0 0.00 0.00 0.00 26 1008.4
20260503194544 17 321 11.3 0.0 0.00 0.00 0.00 28 1008.5
20260503194103 17 11 8.0 0.0 0.00 0.00 0.00 30 1008.5
20260503193513 17 351 11.3 0.0 0.00 0.00 0.00 29 1008.6
20260503193028 17 348 14.5 0.0 0.00 0.00 0.00 28 1008.7
20260503192542 17 302 14.5 0.0 0.00 0.00 0.00 29 1008.7